GFSSGP_sfc_wetblb_159.txt.gz
Wetbulb
64.85 60.58 56.96 54.98 46.87 48.23 46.75 49.52 51.94 51.57 53.04 57.28 62.96 64.33 63.65 63.98 61.67 59.67 72.04 73.82 75.31 76.46 77.19 76.40 76.90 77.05 76.88 77.00 77.09 76.84 76.71 76.69 76.47 76.24 75.95 76.29 76.44 76.60 76.95 76.79 77.03 76.75 75.22 74.47 74.51 74.68 74.48 74.31 74.20
62.12 54.66 55.11 51.13 43.16 42.07 44.98 50.35 50.62 53.86 54.87 55.82 55.96 57.66 60.39 61.36 66.59 68.67 70.71 74.74 76.32 76.54 76.82 76.14 76.82 76.80 76.75 76.49 76.46 76.28 76.43 76.33 76.21 75.99 76.12 76.29 76.49 76.84 76.72 76.62 76.70 76.11 75.33 74.49 74.12 73.95 74.03 74.13 74.21
57.68 55.30 49.20 45.98 42.91 40.45 43.66 49.13 52.28 55.07 55.65 55.15 55.46 61.99 64.03 63.48 68.11 70.44 74.11 75.84 76.19 76.40 76.86 76.63 76.77 76.74 76.69 76.34 76.04 76.06 76.08 76.06 76.11 76.29 76.22 76.44 76.56 76.66 76.51 76.69 76.55 75.96 75.64 75.17 74.56 74.05 73.75 73.99 73.87
54.83 54.13 50.54 43.03 40.90 43.65 45.46 50.02 52.58 53.61 54.97 54.69 54.20 52.47 65.97 72.06 70.61 72.87 75.39 76.02 75.21 75.83 76.20 76.63 76.59 76.51 76.44 76.29 76.11 75.88 75.76 75.88 75.96 76.14 76.24 76.34 76.61 76.48 76.43 76.41 76.40 76.09 75.29 75.06 74.63 73.81 73.52 73.52 73.40
52.55 49.99 43.25 41.69 42.04 44.18 46.96 49.99 50.20 50.73 51.00 52.18 50.49 53.03 55.81 72.05 73.96 74.74 75.45 75.73 74.93 74.92 76.37 76.31 76.53 76.41 76.34 76.16 75.88 75.63 75.51 75.56 75.71 75.94 76.09 76.14 76.03 76.08 76.10 76.06 76.04 75.84 75.18 74.39 73.70 73.15 73.14 73.49 73.04
48.82 47.53 40.74 40.29 42.75 44.06 46.74 48.17 49.36 49.54 50.33 50.63 50.01 50.85 56.72 73.26 73.34 74.40 75.69 75.53 75.98 75.21 75.52 75.65 76.35 76.13 75.86 75.84 75.53 75.41 75.11 75.16 75.32 75.52 75.64 75.69 75.60 75.80 75.85 75.73 75.42 75.07 74.39 73.98 73.40 73.17 73.15 73.28 73.57
49.48 44.51 41.59 41.55 41.87 43.48 45.41 48.82 47.58 48.35 49.14 49.36 51.11 48.80 58.42 71.40 73.81 74.94 75.28 75.70 75.99 76.12 75.68 75.88 75.21 75.86 75.88 75.65 75.21 75.01 74.64 74.76 74.89 74.86 75.03 75.08 75.23 75.45 75.45 75.13 75.06 74.59 74.34 74.17 73.27 73.00 73.00 73.18 73.10
50.81 47.02 42.76 42.06 41.59 42.54 46.31 47.23 48.60 48.39 47.97 52.11 51.42 47.92 51.21 70.98 74.18 74.66 74.93 74.93 75.31 75.73 75.49 74.96 74.93 73.94 74.15 74.82 75.45 74.96 74.83 74.88 74.78 74.90 74.95 74.90 75.02 74.90 74.95 74.50 74.92 74.37 74.29 74.17 73.50 73.15 73.20 73.40 73.39
49.42 44.76 41.67 42.80 42.16 44.02 46.67 45.94 47.97 49.79 49.18 49.45 51.29 52.10 62.57 72.87 73.80 73.29 72.93 72.96 74.01 74.66 74.57 74.90 74.08 74.03 73.28 73.34 74.71 75.11 75.04 75.10 74.90 74.99 75.02 74.16 73.71 73.62 73.42 73.18 74.66 74.36 74.12 74.12 73.79 73.52 73.27 73.15 72.98
47.26 43.25 44.19 47.31 47.39 45.73 47.02 47.33 48.15 48.05 48.57 48.87 51.65 54.69 61.37 70.86 72.34 71.80 71.27 70.85 72.12 72.80 73.08 74.51 74.56 74.00 73.62 73.00 74.21 73.86 73.57 73.08 72.80 73.26 74.35 74.30 74.69 74.23 72.97 73.35 73.72 73.67 73.57 73.40 73.22 72.95 72.78 72.34 71.44
44.84 42.55 47.12 47.00 48.86 48.61 47.81 47.17 49.25 48.04 47.30 50.28 50.75 52.84 61.50 69.53 71.20 71.61 71.69 71.84 71.92 72.84 72.83 73.54 74.21 74.33 73.27 72.62 73.46 73.09 73.48 73.62 74.05 74.24 74.80 74.80 73.93 74.09 73.30 73.31 72.94 73.29 73.10 72.43 72.29 72.46 72.19 71.48 72.28
41.75 44.57 45.08 46.50 47.67 46.63 46.19 49.41 49.19 50.18 49.96 52.83 53.31 53.91 56.50 68.73 70.16 71.31 71.62 71.89 72.02 72.18 72.40 72.99 73.83 73.86 73.85 73.83 72.84 72.88 72.65 72.81 72.74 73.18 74.37 73.79 72.89 73.29 73.03 72.08 72.11 72.80 72.51 72.68 72.79 73.14 73.13 72.61 72.30
41.68 42.79 45.43 46.91 47.10 47.42 48.20 46.81 46.89 48.25 52.98 54.67 55.31 55.74 55.86 60.06 69.52 71.65 72.49 72.85 72.56 72.02 72.21 72.55 72.86 73.89 74.08 73.77 72.95 72.75 72.42 72.44 72.75 73.03 73.39 72.88 72.07 72.12 71.90 72.20 71.81 71.94 73.13 73.77 74.03 74.31 73.77 73.35 72.88
42.41 43.15 43.68 45.10 45.39 46.84 45.28 46.32 47.61 49.00 51.71 52.23 53.40 54.46 55.74 56.12 66.00 70.96 71.50 71.57 71.89 72.34 71.89 72.33 72.79 74.33 73.96 73.51 73.70 72.87 72.80 72.86 73.24 72.78 72.67 72.59 71.85 71.95 70.89 71.36 71.13 71.58 72.90 74.60 74.28 73.68 73.26 72.59 72.23
44.07 40.60 43.19 44.22 44.76 44.12 46.48 43.02 44.22 49.10 51.11 50.38 52.31 53.94 54.44 55.45 58.37 68.89 71.62 71.30 72.11 72.46 73.00 72.21 73.56 74.44 74.09 73.68 73.89 73.47 72.98 72.40 72.45 72.66 73.17 72.49 72.29 72.07 71.44 70.41 70.39 71.95 73.76 73.33 73.51 73.82 73.71 72.30 72.59
39.84 39.69 35.86 42.46 44.54 44.55 44.98 38.02 46.11 49.03 48.92 48.73 49.91 50.73 52.13 55.04 59.88 69.32 71.89 71.81 72.22 72.43 72.19 72.65 73.19 73.79 74.18 73.54 73.21 73.30 73.06 72.40 72.29 72.73 73.03 72.76 72.27 71.91 71.51 71.52 71.73 73.24 73.77 74.19 73.46 72.46 71.86 71.54 71.49
37.49 32.85 34.58 37.87 44.94 43.40 43.26 39.80 45.05 49.15 49.20 48.46 49.54 50.65 51.43 53.44 63.16 70.72 71.87 71.93 71.86 72.20 72.17 72.06 73.00 72.91 73.12 72.07 71.61 73.18 73.39 72.54 72.32 72.75 72.83 73.11 72.10 71.33 71.22 71.62 72.55 74.49 73.01 73.29 72.85 72.11 71.37 70.16 69.85
32.60 32.81 34.79 35.11 40.91 43.33 41.93 41.28 44.93 47.95 48.84 48.77 49.71 50.61 51.94 52.88 61.68 71.09 71.66 71.67 71.80 72.04 72.34 72.20 72.05 72.03 71.68 70.90 72.60 72.62 72.48 72.40 72.40 72.32 72.62 73.03 72.56 71.36 70.94 71.41 72.81 73.99 73.79 72.90 72.61 70.82 69.93 68.32 67.04
37.87 35.60 34.79 37.73 40.96 40.59 40.08 41.70 44.07 46.80 47.96 48.53 49.43 50.72 51.90 53.23 62.34 70.89 71.16 70.60 71.23 71.93 71.22 71.06 70.91 71.34 70.52 71.32 70.67 71.05 70.59 71.16 71.50 72.02 72.52 72.63 72.18 71.82 72.26 72.98 73.31 73.47 71.27 70.31 69.82 69.91 68.32 67.69 66.70
37.52 35.28 35.22 38.47 40.08 39.35 38.67 39.06 43.35 45.76 46.99 48.84 49.79 50.60 51.90 53.31 63.78 68.93 69.87 70.43 70.31 70.24 69.85 70.51 71.58 72.64 71.99 71.55 71.64 71.52 71.39 71.29 71.96 72.36 72.98 73.32 73.56 73.23 71.99 70.97 70.82 70.63 68.52 66.97 65.59 65.95 67.19 65.95 64.69
36.53 34.82 35.37 34.66 38.62 39.88 37.95 35.93 38.91 43.77 46.76 48.63 50.72 51.89 52.75 53.39 61.82 67.27 68.59 69.10 69.46 69.56 69.76 70.09 71.21 71.04 71.77 71.76 71.75 72.59 72.81 72.42 70.68 70.50 71.16 68.99 67.84 68.40 70.83 67.39 66.18 66.61 66.24 64.29 63.46 64.29 65.11 64.17 63.52
33.67 39.81 37.23 36.06 34.17 30.39 38.69 29.01 36.94 41.62 42.79 46.54 49.47 51.26 51.78 53.02 60.81 67.22 67.99 68.55 69.24 69.82 71.26 70.87 70.78 70.72 71.17 71.57 71.52 72.31 70.50 67.48 67.95 68.20 66.89 66.85 67.53 66.52 66.86 66.12 65.08 65.32 64.51 63.16 62.72 62.54 63.75 60.82 60.52
36.33 40.59 37.78 36.72 34.67 33.61 33.71 31.76 36.41 41.84 42.04 44.84 48.33 50.95 52.05 53.51 58.66 65.74 67.52 68.56 69.57 70.54 70.43 70.59 71.00 71.10 71.96 72.14 72.85 69.18 66.72 66.21 65.90 65.29 64.28 64.14 63.51 65.92 62.91 62.57 61.18 61.93 62.32 61.21 59.75 58.73 58.51 58.02 56.92
41.42 37.36 36.27 35.61 33.66 25.20 31.97 32.08 33.66 38.14 42.30 46.24 48.27 51.25 52.01 52.33 57.78 66.05 68.28 69.14 69.41 70.19 69.77 69.89 70.33 70.75 72.33 71.87 69.81 68.29 66.11 65.18 63.98 63.98 62.92 62.44 61.19 60.38 60.03 59.60 59.80 60.56 60.50 59.59 58.05 58.06 57.82 57.15 57.67
38.34 34.01 26.47 24.27 24.17 23.85 34.46 31.32 34.70 42.77 45.85 47.77 48.61 50.98 52.10 52.34 60.41 65.44 67.36 67.69 68.04 68.04 68.63 69.21 68.88 69.85 70.89 69.71 68.49 68.30 67.69 66.92 63.89 64.22 62.97 60.64 60.00 59.42 57.69 59.05 59.42 59.48 59.24 58.36 58.00 58.40 58.25 58.34 57.91
36.42 34.50 27.51 19.40 21.63 27.01 34.09 27.99 34.94 42.63 47.06 49.58 51.02 52.35 51.86 51.82 61.79 65.62 67.44 67.99 67.55 67.85 68.14 67.99 69.20 69.67 69.73 68.81 68.21 69.29 69.01 68.72 67.41 65.23 64.80 63.35 60.57 57.99 57.35 58.17 57.86 58.00 57.70 57.02 57.75 57.56 57.24 57.55 57.71
34.70 30.86 36.46 29.22 31.20 27.83 31.83 35.68 41.56 43.05 45.05 47.76 49.40 50.42 51.04 51.74 61.74 65.49 67.52 67.44 65.63 66.21 66.38 67.24 68.44 68.41 69.62 67.59 68.49 69.31 68.55 66.43 63.79 63.64 62.80 61.28 60.00 59.60 57.96 57.45 56.71 56.85 56.32 56.21 56.34 56.55 57.07 57.54 57.45
36.88 38.44 28.52 30.87 22.16 21.48 28.93 31.15 33.62 40.39 42.04 47.19 49.14 49.53 51.50 53.03 60.18 64.86 66.09 64.65 64.96 64.77 65.27 66.01 66.46 66.70 67.19 67.54 68.44 67.32 64.84 62.38 61.81 61.41 58.94 59.26 58.46 57.29 55.89 56.15 55.40 54.26 55.43 55.02 55.42 55.07 56.29 56.85 56.58
35.07 33.16 33.50 33.93 32.03 26.13 26.08 30.91 41.10 44.90 45.66 47.20 49.78 50.91 51.36 55.79 60.07 63.46 63.31 62.74 62.47 61.36 61.74 62.30 63.42 63.82 64.13 64.18 63.19 61.81 61.21 61.56 60.35 60.16 59.25 57.66 56.32 55.31 54.20 53.85 53.17 52.88 53.43 53.90 54.79 55.24 55.51 56.08 56.71
39.03 35.84 35.04 29.85 27.40 31.44 32.82 34.72 46.64 48.24 49.64 50.22 50.60 49.90 55.01 59.59 61.57 60.85 59.24 59.77 59.79 59.10 59.51 59.41 60.30 60.24 60.36 60.44 60.05 58.93 58.43 57.92 57.90 56.55 56.42 55.77 54.53 53.86 52.87 52.97 52.11 51.88 51.56 52.93 54.28 54.35 55.24 55.63 56.32

GFSSGP_sfc_wetblb_162.txt.gz
Wetbulb
67.08 64.12 60.78 55.82 49.91 50.60 50.40 53.14 57.23 55.62 56.13 58.97 60.82 60.80 62.47 64.69 63.95 62.57 73.88 76.21 77.78 78.22 78.43 77.19 77.53 78.02 77.86 77.66 77.21 76.60 76.10 76.13 76.20 76.43 76.20 76.48 76.83 77.13 77.36 77.33 77.08 76.44 75.49 76.07 76.27 75.55 74.85 74.31 74.45
64.48 58.59 56.92 53.38 45.73 45.88 49.41 54.20 54.80 57.34 58.49 59.47 59.63 59.63 60.89 60.67 66.66 70.70 72.63 75.60 78.28 78.80 78.71 76.51 77.23 77.51 77.63 77.48 77.20 76.78 76.70 76.60 76.30 76.00 76.35 76.65 76.73 77.15 77.25 77.03 77.06 76.13 74.92 74.74 74.70 74.58 74.44 74.40 74.27
61.49 58.18 52.71 48.50 46.25 44.36 48.35 54.01 55.07 58.17 58.92 58.24 58.16 60.31 61.39 64.37 69.47 71.38 75.28 76.38 78.09 78.26 78.43 77.10 76.93 77.18 77.46 77.35 77.02 76.82 76.60 76.37 76.17 76.08 76.50 76.58 76.80 76.80 76.70 76.80 76.96 75.97 75.06 74.55 74.17 74.13 74.19 74.33 74.04
57.30 55.75 53.60 46.86 45.57 47.94 49.13 52.83 53.90 56.11 58.85 59.27 59.08 56.65 62.99 74.04 72.81 74.40 76.53 76.64 77.72 77.82 77.86 76.78 76.75 76.75 76.92 77.07 76.79 76.69 76.44 76.07 76.15 76.25 76.50 76.68 76.88 76.64 76.57 76.75 76.73 76.34 75.61 75.25 74.61 74.04 73.94 73.94 73.76
56.63 54.31 48.12 46.35 47.10 49.74 50.53 51.97 53.06 53.82 55.91 58.49 58.79 56.95 58.71 71.35 74.13 76.74 76.49 76.79 76.79 77.36 77.21 76.65 76.57 76.45 76.60 76.90 76.67 76.52 76.29 75.97 76.10 76.30 76.53 76.78 76.69 76.59 76.57 76.60 76.45 76.09 75.47 74.96 74.36 73.49 73.37 73.50 72.82
51.52 51.70 45.76 44.83 47.14 50.23 51.87 52.43 51.66 53.14 55.07 56.19 54.87 57.18 58.71 73.25 74.83 76.60 77.43 77.12 77.14 76.67 76.51 76.03 76.47 76.20 76.05 76.37 76.24 75.96 75.99 75.79 75.95 76.10 76.35 76.55 76.34 76.34 76.29 76.37 75.95 75.57 74.98 74.37 73.59 72.95 73.02 72.91 72.75
52.12 49.24 45.97 47.26 47.78 49.07 50.83 53.46 51.06 51.13 53.15 54.82 56.10 53.33 59.72 70.40 75.60 77.13 77.38 77.70 77.34 77.26 76.02 74.59 75.02 76.11 75.94 75.74 75.51 75.56 75.38 75.47 75.34 75.49 75.66 75.74 75.76 75.91 75.91 75.84 75.12 74.40 73.89 73.51 73.19 72.76 72.46 72.48 73.04
53.45 51.83 47.72 48.18 47.11 47.54 51.98 52.11 52.67 51.89 51.04 56.13 56.37 51.37 54.87 64.16 75.74 77.34 77.24 77.03 77.07 77.11 76.31 75.03 73.93 74.04 73.62 75.03 75.54 75.28 75.26 75.31 75.23 75.36 75.36 75.23 75.54 75.58 75.17 74.70 75.02 74.15 73.75 73.42 72.89 72.41 72.15 72.59 72.92
54.76 48.02 45.24 46.83 48.14 48.77 52.65 49.74 52.48 53.64 52.72 54.09 54.88 53.97 58.26 71.73 75.46 76.03 75.86 75.93 76.04 75.94 76.16 75.17 73.97 73.06 73.12 72.73 74.70 75.00 75.15 75.37 75.04 75.07 75.19 74.42 73.32 74.24 74.31 74.66 74.77 74.13 73.95 73.80 73.40 73.15 72.98 72.85 73.16
48.99 45.92 46.01 49.81 51.11 50.27 51.93 51.17 51.41 50.52 50.80 51.96 52.95 55.45 56.73 68.29 72.03 73.25 74.37 74.13 74.87 74.94 75.46 75.38 74.33 73.25 73.09 72.64 73.82 72.16 72.55 72.67 72.60 73.05 73.73 72.68 74.35 74.21 72.54 73.98 74.20 73.98 73.72 73.70 73.35 73.00 72.45 72.18 71.20
47.91 44.64 48.61 49.66 52.15 52.86 51.42 51.47 52.39 50.39 50.09 52.24 51.94 54.75 56.31 63.18 68.96 70.81 73.18 74.80 75.10 75.77 75.69 75.73 75.02 74.61 73.48 73.03 73.06 72.29 71.99 71.62 71.85 72.75 73.77 74.66 74.52 74.21 72.84 73.31 72.23 72.86 72.67 72.14 71.82 72.72 72.34 72.31 72.91
43.92 47.14 47.85 49.56 51.83 50.97 49.86 52.54 52.00 51.90 51.93 54.36 55.16 56.17 56.27 60.30 68.11 69.89 71.62 74.52 75.18 75.60 75.33 76.32 76.04 75.13 75.11 73.92 73.13 73.74 72.84 72.44 72.62 73.43 75.00 74.84 73.59 73.81 72.91 72.25 72.11 72.88 71.95 72.84 72.72 73.27 75.54 74.53 74.60
44.97 45.51 46.77 48.61 49.46 49.95 51.22 50.25 50.68 51.67 54.36 55.99 55.98 55.98 56.58 57.90 64.27 72.18 73.63 74.53 75.70 75.24 75.63 76.13 76.62 75.81 74.99 75.03 73.91 73.98 74.00 73.77 73.37 73.58 74.53 73.98 72.41 72.88 73.16 72.69 71.84 71.60 72.53 73.41 73.53 75.39 76.25 76.33 76.25
46.19 45.75 46.14 47.56 47.02 48.42 47.94 48.95 50.53 51.89 54.48 54.14 54.98 55.67 56.98 57.62 58.89 67.50 73.06 73.84 74.97 75.48 75.32 75.91 75.70 76.56 75.62 75.38 74.97 74.23 74.43 74.31 74.18 74.07 74.03 73.85 73.03 73.29 71.95 72.31 71.69 71.81 73.70 75.52 75.60 76.14 76.17 76.45 75.82
47.09 43.61 45.58 46.43 47.23 46.63 47.72 44.12 46.21 51.04 53.15 53.06 54.48 55.28 56.13 57.61 58.68 61.30 71.40 73.02 74.95 75.23 75.75 74.68 74.91 76.67 76.33 75.63 75.40 75.06 74.58 74.24 74.04 74.32 75.19 74.40 74.14 74.04 72.74 70.80 70.83 71.85 75.51 76.03 75.65 76.00 77.43 76.62 75.95
43.50 43.87 39.72 45.04 46.33 46.87 46.27 40.50 46.60 49.99 50.97 51.04 52.54 54.56 55.54 57.19 58.22 60.10 62.55 73.31 74.63 74.64 75.08 74.23 75.06 76.37 76.32 75.86 75.84 75.31 75.05 74.61 74.36 74.73 75.30 74.81 74.22 73.77 73.10 70.84 70.09 73.57 74.92 74.92 76.18 77.06 75.10 74.40 72.55
43.11 37.86 39.48 41.45 46.40 46.16 45.25 41.99 46.96 49.49 50.46 50.66 51.95 53.29 54.35 55.47 57.10 60.06 63.52 71.33 74.52 74.87 74.64 73.15 76.13 75.98 76.28 76.39 76.38 76.17 76.54 74.96 74.58 74.72 74.86 75.11 74.00 72.87 72.30 71.41 72.32 75.89 75.29 76.73 75.24 74.32 73.99 71.75 69.56
38.08 38.72 39.96 39.21 43.32 44.58 43.59 43.45 46.53 49.29 50.14 50.48 51.80 53.09 54.12 55.07 56.20 58.75 67.29 72.33 74.38 74.95 75.41 75.71 75.95 76.27 76.78 75.74 74.87 75.19 75.19 75.06 74.89 74.66 74.70 75.28 73.96 73.09 72.43 73.53 74.65 75.77 74.72 74.10 74.61 73.32 71.99 69.38 67.92
42.09 40.32 39.36 42.69 45.12 42.74 42.89 44.00 46.01 48.74 49.13 49.74 51.52 53.15 54.43 55.36 57.70 59.17 70.28 73.12 73.68 74.67 74.52 75.14 75.05 75.66 74.93 73.00 72.94 73.02 72.58 73.89 74.07 74.46 74.84 74.67 73.71 73.17 72.95 73.47 74.49 74.47 73.82 72.36 70.89 70.95 69.39 66.72 66.72
42.32 40.22 40.03 43.28 45.02 43.93 43.08 42.19 44.88 47.33 48.63 50.38 51.34 52.64 54.47 55.79 57.33 59.38 71.01 72.43 73.05 74.20 74.36 74.83 74.69 75.02 73.93 73.51 73.81 73.47 73.30 73.87 73.85 73.87 74.34 74.44 74.04 74.42 73.96 73.85 71.02 70.85 69.14 68.31 67.28 67.22 67.28 66.65 66.05
41.90 39.92 39.98 40.10 43.45 44.96 42.47 40.37 43.12 46.22 47.19 49.33 51.37 53.12 54.90 55.79 56.82 61.96 69.79 71.97 73.94 74.27 74.14 74.34 73.73 73.06 73.38 75.08 74.10 73.97 74.15 74.07 72.63 73.19 72.07 73.65 73.12 72.37 71.78 70.58 70.03 66.99 65.22 64.77 65.51 64.64 65.40 65.39 66.88
37.98 43.49 42.28 39.21 36.43 34.89 42.94 33.98 42.27 45.23 45.62 46.66 48.93 51.40 53.30 55.76 57.26 63.43 70.67 72.64 73.66 74.27 74.82 74.31 73.76 74.44 74.07 74.72 73.94 74.24 71.28 69.90 69.49 67.42 68.66 69.49 69.79 69.31 68.38 66.88 66.02 68.23 66.13 63.93 63.65 64.30 65.21 64.20 61.90
39.18 43.17 41.05 40.43 37.67 36.13 38.90 36.36 40.43 44.96 43.28 45.12 47.51 50.61 53.34 55.92 57.39 61.42 70.73 72.84 73.76 74.31 73.85 74.07 74.38 74.09 73.70 73.92 74.23 72.55 69.03 67.10 66.04 65.45 66.13 67.55 68.64 69.16 68.18 68.39 68.38 66.47 62.39 63.31 61.81 61.77 61.50 61.14 59.99
43.90 40.70 40.44 39.79 37.29 30.81 37.70 37.40 38.46 41.82 43.96 45.78 48.92 49.70 53.03 55.47 57.29 60.83 70.97 73.12 73.62 74.43 74.20 73.91 73.47 73.00 73.44 73.62 73.05 69.85 67.04 65.44 64.71 65.29 66.45 65.78 65.79 65.54 66.25 66.10 65.37 63.35 63.42 62.01 61.51 61.26 60.94 60.49 61.54
40.59 37.08 30.48 29.22 28.94 29.80 39.83 36.46 39.43 44.43 45.98 47.93 48.79 50.59 52.93 55.85 56.96 60.34 69.61 71.42 72.90 73.31 73.50 73.00 72.08 71.97 72.94 72.92 71.23 70.90 69.26 68.73 68.60 68.22 65.01 62.73 63.12 65.26 66.12 63.47 64.24 63.71 62.62 61.82 61.65 61.14 60.95 60.72 60.01
38.42 38.37 32.25 25.40 28.13 32.68 38.77 33.32 39.08 46.05 47.54 49.29 50.67 52.50 53.50 56.01 57.20 61.08 69.36 71.35 72.13 72.58 72.56 70.12 71.27 71.52 71.56 72.36 71.95 71.25 71.02 70.78 69.25 66.85 65.43 64.30 63.94 62.55 61.85 63.54 62.86 60.89 60.07 60.76 61.21 60.43 60.07 60.34 59.87
36.49 33.02 39.49 31.61 33.37 31.46 36.58 39.92 43.62 46.29 46.07 47.41 50.90 51.92 53.15 56.34 57.26 64.26 69.50 71.23 71.59 71.69 70.32 70.65 70.80 71.00 71.03 72.17 71.77 71.39 72.09 69.65 67.24 67.52 66.19 62.94 61.57 61.70 61.16 60.72 59.82 60.06 60.23 60.65 61.09 60.01 59.23 60.06 59.79
38.93 40.69 33.73 34.83 25.64 25.29 33.40 35.71 37.00 42.32 43.79 46.07 48.51 52.06 54.53 56.29 58.80 66.39 69.44 70.10 70.52 69.18 70.01 71.37 71.34 70.87 70.53 71.49 71.30 68.30 65.83 65.88 65.10 65.19 63.90 64.57 63.92 62.79 60.80 59.59 58.91 59.37 58.95 59.05 58.86 58.97 58.82 58.90 59.23
36.26 34.65 37.14 37.54 33.56 28.60 28.78 34.36 44.97 43.52 45.86 45.68 49.26 52.53 55.04 55.85 62.29 67.38 66.96 67.08 66.69 67.93 69.04 70.26 71.10 69.46 70.02 68.52 64.31 63.61 65.30 65.05 64.55 63.57 64.56 63.80 62.08 61.23 59.82 59.38 58.70 58.54 58.25 57.95 59.12 58.89 57.89 58.00 58.92
41.30 37.99 37.59 31.81 31.25 35.18 32.67 30.81 48.38 45.85 47.83 48.75 50.85 53.45 55.62 57.48 65.41 63.87 62.90 63.40 64.46 65.90 66.58 66.74 67.39 67.44 64.57 63.06 63.15 64.06 65.19 64.76 63.45 62.07 62.40 62.28 60.69 60.38 59.26 58.59 57.77 56.74 57.02 58.24 58.32 57.91 58.50 58.77 58.16

GFSSGP_sfc_wetblb_165.txt.gz
Wetbulb
67.06 66.20 63.18 57.13 50.10 51.23 50.91 53.69 57.59 56.93 57.47 60.35 61.40 60.55 61.71 64.76 63.96 63.79 75.41 76.08 77.29 78.06 78.14 77.38 78.26 78.44 78.01 77.70 77.32 76.87 76.26 76.34 76.24 76.62 76.42 76.77 77.07 77.55 77.40 77.27 77.10 77.19 76.99 76.73 76.39 75.70 74.83 74.50 74.52
66.61 63.70 59.00 53.64 46.69 46.02 50.08 55.57 55.62 58.25 59.58 60.25 60.07 60.66 60.15 61.87 65.80 71.61 73.57 76.70 77.59 78.49 77.97 77.18 78.02 78.06 77.88 77.43 77.04 76.59 76.42 76.22 76.34 76.54 76.47 76.82 77.32 77.32 77.47 77.22 76.97 76.20 76.40 76.45 76.06 75.27 74.50 74.28 74.26
65.95 61.39 54.29 50.36 47.66 45.10 48.33 55.09 57.25 59.02 60.82 59.56 59.00 60.41 60.70 62.39 69.40 71.68 76.04 77.34 78.13 78.01 77.90 77.96 78.00 77.88 77.73 77.42 76.69 76.39 76.37 76.29 76.47 76.49 76.77 76.94 77.27 77.39 77.27 77.15 76.89 75.93 75.01 74.83 74.51 74.36 74.31 74.35 74.19
60.98 57.44 55.12 48.87 47.48 49.94 50.23 53.15 56.54 57.37 59.59 61.02 60.35 57.79 61.79 73.44 72.62 74.38 76.29 77.15 78.34 77.50 77.58 77.21 77.62 77.65 77.57 77.45 77.07 76.61 76.54 76.47 76.29 76.52 76.84 76.97 77.27 77.04 76.86 77.07 76.97 76.11 75.05 74.51 74.26 74.24 74.19 74.08 73.71
59.82 55.52 49.32 48.21 48.14 50.89 53.61 54.67 55.46 54.54 56.79 59.56 60.15 58.20 60.40 71.52 73.45 76.55 76.54 76.78 77.74 77.95 77.56 77.08 77.32 77.54 77.62 77.50 77.24 76.71 76.49 75.99 75.97 76.62 76.79 76.94 76.86 76.71 76.97 76.75 76.11 75.92 75.60 75.13 74.33 73.94 73.74 73.69 72.93
53.62 53.78 47.86 46.99 49.22 51.86 53.56 55.23 54.20 53.93 54.91 57.19 59.20 59.49 61.13 72.63 72.13 74.95 76.74 77.41 78.18 77.67 77.50 76.59 77.00 76.98 76.91 77.04 76.91 76.48 76.08 75.99 76.06 76.47 76.52 76.66 76.66 76.76 76.59 76.24 75.81 75.40 75.06 74.53 73.95 73.30 73.31 72.83 72.15
53.08 50.68 47.19 48.42 49.28 51.31 53.37 56.26 54.13 53.50 53.44 54.62 59.17 57.00 61.39 68.39 73.57 75.88 76.99 78.03 78.09 77.74 77.11 75.35 75.38 77.06 76.86 76.60 76.52 76.25 75.90 75.91 75.91 76.05 76.33 76.42 76.50 76.43 76.14 75.84 75.56 75.03 74.32 73.71 73.21 72.69 72.44 72.29 72.24
53.27 52.09 48.41 49.18 47.99 49.53 54.64 55.44 55.91 54.20 53.34 57.54 58.87 55.23 57.32 68.94 75.37 76.31 77.31 77.57 77.62 77.50 76.17 73.78 74.44 74.35 75.79 76.75 76.28 76.15 75.98 75.95 75.92 76.07 76.07 76.04 75.86 75.71 75.36 75.25 74.84 74.03 73.65 73.24 72.65 72.20 71.99 72.03 72.64
55.01 47.79 45.86 47.64 48.83 50.87 54.88 53.89 56.14 56.39 54.30 55.62 56.87 58.19 60.82 71.62 72.95 74.02 75.80 76.33 76.46 76.37 75.60 73.88 72.40 72.29 72.65 73.71 75.95 75.71 75.74 75.96 75.72 75.62 75.58 74.46 73.59 73.84 74.43 74.83 74.72 73.98 73.55 73.13 72.56 72.58 72.68 73.12 73.82
49.26 46.86 47.30 51.07 51.84 51.40 53.06 53.88 54.60 53.00 53.00 53.21 55.06 57.39 58.76 62.36 71.08 72.15 73.66 74.45 75.23 75.02 75.19 74.23 72.75 72.06 72.09 71.73 74.28 73.46 73.90 73.42 72.17 72.60 73.90 72.17 73.07 73.17 73.07 74.36 74.26 73.98 73.95 73.77 73.67 73.42 73.39 72.92 70.42
48.21 45.53 48.85 49.98 51.64 52.16 51.57 52.89 55.00 53.05 51.91 53.56 53.04 55.84 57.47 58.08 67.90 70.04 73.32 74.96 75.18 75.69 75.41 74.59 74.64 74.77 72.70 72.39 71.57 71.82 71.40 71.11 72.72 73.09 73.94 74.04 73.53 73.76 72.53 73.53 71.90 72.93 73.51 72.42 72.45 71.91 70.93 71.98 72.61
44.75 47.54 48.74 49.29 50.32 50.62 51.10 53.94 53.12 53.72 53.84 55.98 56.37 56.75 57.47 57.02 60.94 67.79 70.24 74.02 75.41 75.73 75.77 74.95 74.67 75.24 75.51 74.08 71.21 71.72 70.36 70.94 71.95 72.72 74.38 76.05 73.67 74.18 72.79 72.17 71.14 72.41 71.57 72.02 72.45 71.26 73.88 74.15 73.82
46.58 47.22 48.03 48.48 48.65 49.52 51.62 51.98 51.93 52.57 55.58 57.00 56.76 56.79 56.56 57.76 59.02 67.78 70.14 71.86 75.41 74.91 75.41 75.59 75.51 75.64 77.32 76.50 73.14 73.58 72.96 71.48 72.43 73.09 74.16 74.43 73.50 74.20 72.81 72.71 71.88 72.23 71.53 71.93 71.79 72.28 74.41 74.61 74.34
48.80 47.80 47.69 48.58 48.32 48.63 47.55 49.74 51.13 52.41 55.11 55.75 56.62 56.48 56.80 57.55 58.72 61.42 70.33 71.36 74.96 74.63 75.48 76.32 75.74 76.75 75.99 76.12 77.16 75.84 75.91 74.72 74.10 73.61 73.86 74.56 74.63 75.49 72.36 72.95 71.87 71.38 71.64 72.43 73.21 73.27 74.09 74.28 74.91
49.18 45.77 47.43 47.57 47.85 47.14 48.69 45.21 46.40 51.25 53.54 54.17 54.86 56.29 57.13 58.17 59.22 59.88 63.49 71.93 74.85 74.86 75.51 76.56 76.50 76.21 77.19 76.38 76.32 76.31 75.46 74.95 74.16 74.19 75.38 74.38 75.16 75.71 76.14 71.41 71.17 71.09 73.53 74.48 74.72 75.06 74.74 74.54 74.69
45.60 46.02 41.66 46.32 47.04 47.60 47.34 41.44 47.33 50.46 50.64 51.09 53.02 54.93 56.40 57.82 57.97 60.13 61.31 69.37 75.51 75.17 74.65 76.34 76.22 74.72 77.53 77.73 76.44 75.75 75.28 74.89 74.83 74.86 75.37 74.97 74.67 74.74 73.87 71.33 71.17 71.16 73.83 73.59 73.12 73.69 74.17 74.84 73.25
45.15 40.13 41.82 42.84 47.05 46.37 46.45 43.47 47.60 50.40 50.34 49.80 51.44 53.33 54.57 56.88 58.59 60.70 61.45 65.86 74.33 74.89 75.17 74.44 75.14 74.84 75.97 78.62 76.81 77.45 78.38 75.54 74.90 75.02 75.28 75.73 74.98 73.67 72.98 70.72 70.95 74.46 72.84 73.38 75.13 74.47 73.99 72.26 71.31
40.63 40.86 41.85 41.65 45.00 45.62 44.22 44.19 47.52 49.46 49.84 50.30 50.80 52.29 53.83 55.29 57.65 59.98 61.52 63.34 71.46 76.07 74.96 74.92 73.74 75.65 75.82 77.10 77.36 76.11 75.93 75.35 74.76 74.45 74.86 76.08 74.79 73.23 72.87 71.90 74.38 74.38 73.77 74.56 74.88 73.67 72.09 70.19 68.50
44.71 42.89 42.22 44.00 46.07 44.37 44.64 44.16 46.21 49.41 49.19 49.77 50.34 52.36 53.73 55.45 58.20 59.39 60.37 62.07 69.97 75.91 74.76 73.77 74.52 75.20 75.25 75.15 74.56 74.55 73.48 74.16 73.53 74.31 75.91 75.54 74.16 72.94 73.52 72.27 75.09 74.64 71.71 72.43 72.83 71.86 69.84 67.89 67.79
43.27 41.63 41.75 44.94 46.10 44.62 44.84 44.07 46.74 47.76 48.41 50.21 50.94 52.67 54.05 55.64 57.83 58.78 59.94 62.17 72.31 75.12 73.87 74.21 75.34 75.62 75.84 75.22 75.97 74.66 74.06 73.36 73.48 74.50 75.22 74.80 73.96 74.09 73.15 74.82 73.10 71.48 69.18 69.45 69.30 68.29 67.71 67.63 66.84
43.39 41.67 41.30 41.73 44.97 46.19 44.41 42.26 45.34 47.65 49.12 49.47 51.28 52.90 54.30 55.26 57.12 58.73 59.45 65.24 73.82 73.37 73.51 74.20 75.58 76.11 76.54 76.38 76.05 75.88 75.52 74.79 72.72 73.25 72.99 74.15 74.44 74.78 74.65 73.84 72.04 70.06 68.51 66.52 65.43 65.74 65.18 64.64 66.45
39.91 45.02 43.84 42.64 40.78 37.24 43.63 34.62 43.35 46.39 46.97 48.10 49.14 51.37 53.11 54.95 57.33 58.94 59.66 67.09 73.61 72.57 73.50 74.57 76.12 74.61 75.95 77.85 75.15 75.45 72.14 70.66 72.50 72.86 73.36 73.47 73.92 73.38 73.07 71.71 69.74 68.55 69.08 67.53 66.58 65.98 65.20 64.73 63.50
41.79 46.30 43.99 43.44 41.64 39.16 40.94 36.00 41.69 46.54 44.96 46.98 48.73 49.79 52.09 54.77 56.84 58.29 59.48 69.46 72.74 72.38 73.29 74.64 73.77 75.29 75.27 76.56 76.13 74.04 73.05 69.42 70.18 70.70 71.71 71.78 71.67 71.12 70.96 69.79 68.65 67.95 67.04 65.47 62.46 63.24 63.66 62.94 61.53
46.39 44.09 43.88 43.18 39.09 33.02 39.15 37.07 39.28 41.82 45.24 47.33 49.69 50.19 51.28 53.49 55.75 58.55 61.40 70.63 73.07 72.69 73.40 73.32 73.26 74.98 75.50 76.38 76.40 73.74 68.65 68.02 68.53 70.06 69.54 68.10 69.11 68.94 68.71 68.32 67.24 67.61 67.51 66.23 64.94 63.14 63.15 62.98 62.31
43.93 39.21 32.00 30.62 31.62 31.79 40.99 37.40 41.02 46.43 48.00 48.77 49.26 50.24 51.38 52.95 55.31 57.86 59.82 70.82 73.11 70.61 73.74 73.32 73.67 73.28 75.09 75.08 73.86 71.23 70.92 70.83 70.61 70.21 66.06 67.39 66.87 66.85 65.66 67.13 66.84 66.20 65.48 64.52 63.97 63.20 62.82 62.31 60.89
40.15 38.82 31.36 25.18 29.43 34.01 41.26 35.94 41.34 48.71 49.88 50.26 50.31 51.70 52.22 52.34 55.53 57.71 59.43 70.93 70.92 72.34 73.61 72.40 73.08 72.98 73.63 73.60 72.41 72.04 71.95 71.36 70.16 67.36 68.02 67.15 65.51 65.24 66.60 65.86 65.48 63.03 63.27 62.70 62.89 61.94 61.42 61.58 60.68
37.92 34.95 40.87 33.65 37.62 33.90 37.96 39.88 46.60 47.83 47.76 49.00 49.20 51.01 52.01 52.51 56.21 57.97 59.48 68.25 69.21 72.88 72.06 73.00 73.38 73.36 72.94 72.90 73.40 71.66 73.55 71.39 68.60 68.99 69.63 65.69 65.45 65.25 65.75 64.31 62.89 62.60 62.39 62.51 62.79 61.37 61.17 60.80 60.47
40.12 42.58 33.38 34.40 27.35 26.31 33.23 35.84 36.72 43.17 45.66 47.87 48.56 49.38 52.19 53.48 55.58 58.02 59.36 61.93 70.12 71.25 71.96 73.46 73.57 72.61 72.89 72.73 71.73 72.08 71.38 70.38 69.27 68.37 65.75 66.90 66.49 65.49 64.07 62.91 62.16 61.78 61.48 61.54 61.56 60.86 60.47 60.35 60.01
38.21 35.30 36.92 38.65 36.62 30.17 29.35 34.26 43.18 44.36 47.05 48.18 49.15 50.31 53.02 53.79 55.70 58.01 64.49 61.45 68.20 69.48 70.59 70.73 71.07 71.91 71.04 69.46 69.22 68.81 68.55 67.96 67.17 66.68 66.75 66.16 65.53 64.29 62.39 61.91 61.63 61.12 60.66 61.04 61.10 60.56 60.03 59.76 60.31
42.18 39.99 38.82 34.40 32.83 36.72 35.12 35.42 45.08 46.52 47.64 49.36 49.92 51.58 54.61 55.22 57.09 62.91 66.91 62.82 67.60 68.22 69.43 69.44 69.48 67.70 67.26 68.52 68.12 67.30 66.86 66.06 65.69 65.42 64.98 65.13 63.56 62.78 61.82 61.31 60.24 59.86 59.80 60.59 59.90 59.10 59.88 59.62 59.01

GFSSGP_sfc_wetblb_168.txt.gz
Wetbulb
66.32 64.08 63.38 58.93 48.69 48.68 47.12 50.85 55.67 54.80 55.98 60.03 61.10 59.92 59.80 62.03 63.96 60.89 75.28 75.64 76.36 75.95 76.82 77.37 78.57 78.22 77.84 77.39 76.98 76.60 76.37 76.47 76.52 76.35 76.75 76.70 77.31 77.38 77.03 77.18 77.44 77.68 77.65 76.65 76.05 75.37 74.83 74.69 74.29
64.53 63.89 62.30 53.96 45.21 43.18 45.96 52.68 53.36 56.28 58.57 60.41 59.87 59.69 59.62 59.95 70.51 71.35 72.80 77.14 76.93 76.35 76.05 76.70 78.29 78.04 77.87 77.28 76.83 76.52 76.47 76.47 76.60 76.47 76.80 76.98 77.20 77.26 77.08 77.01 77.26 77.48 76.91 76.44 75.75 74.99 74.53 74.32 74.23
64.32 66.01 55.00 49.68 46.17 43.21 45.07 51.47 54.65 57.46 59.47 59.78 58.53 60.45 60.05 62.97 70.90 72.40 75.93 77.69 77.17 76.50 75.79 77.56 78.04 77.81 77.71 77.41 76.85 76.39 76.40 76.27 76.60 76.53 76.75 77.13 77.26 77.28 77.08 76.91 76.63 76.64 76.19 75.72 75.22 74.73 74.52 74.32 73.87
58.89 58.55 54.81 46.98 45.39 48.37 48.59 50.69 52.85 53.74 56.62 60.71 60.16 57.31 61.50 72.96 72.15 74.77 76.41 77.83 76.85 75.95 76.20 77.49 77.65 77.55 77.46 77.25 76.77 76.47 76.37 76.55 76.55 76.55 76.80 77.06 77.13 77.27 77.20 76.86 76.35 76.09 75.33 74.65 74.40 74.47 74.38 74.03 73.50
59.88 55.79 48.03 46.86 46.92 49.45 51.83 53.46 54.14 53.01 54.45 57.55 59.97 57.88 61.11 70.98 74.83 75.22 75.60 77.58 76.63 76.00 77.02 77.16 77.53 77.38 77.23 77.11 76.93 76.62 76.47 76.29 76.32 76.73 76.88 77.08 77.02 76.97 77.10 76.83 76.58 76.36 75.84 74.89 74.29 74.16 74.10 73.82 73.12
53.22 53.98 46.45 44.87 47.51 50.84 52.88 54.01 53.59 53.55 54.52 55.27 56.81 58.80 62.47 70.74 72.61 74.55 75.58 77.13 77.23 76.36 76.30 76.51 77.48 77.22 77.02 76.90 76.72 76.37 76.12 76.02 76.27 76.39 76.60 76.79 76.87 76.87 76.73 76.61 76.43 76.10 75.64 74.88 74.01 73.54 73.63 73.51 72.66
50.69 49.75 45.99 46.31 46.89 49.29 52.35 55.74 53.53 53.07 53.64 53.69 57.12 54.98 64.18 68.76 72.59 74.80 75.72 77.19 77.63 76.95 75.94 75.78 76.89 77.24 77.27 76.69 76.31 75.99 75.74 75.66 76.06 76.16 76.36 76.43 76.74 76.49 76.52 76.18 76.10 75.65 75.10 74.47 73.75 73.17 73.13 73.08 72.65
51.08 49.66 46.60 47.67 46.63 46.96 52.25 53.86 55.68 54.74 53.46 57.67 57.42 52.95 58.71 70.65 73.20 74.77 75.27 76.41 76.86 76.64 75.07 74.51 75.79 76.09 75.88 75.96 76.49 76.06 75.86 75.98 76.10 76.38 76.42 76.35 76.26 76.09 76.02 75.64 75.40 74.60 74.32 74.09 73.39 73.05 72.93 72.99 73.05
52.94 45.65 44.32 45.83 47.12 48.89 53.09 52.14 55.41 57.20 55.38 55.58 56.26 56.07 66.58 71.54 72.94 73.58 74.30 75.36 75.96 76.00 74.54 73.70 73.98 75.19 75.30 75.30 75.89 76.21 76.34 76.26 76.28 76.11 76.03 74.75 73.63 73.82 73.84 73.99 74.90 74.30 73.92 73.61 73.28 73.05 72.88 73.05 73.58
47.04 44.75 45.01 49.53 50.16 49.36 51.61 51.94 52.93 53.74 53.97 53.51 54.72 56.94 61.89 67.97 69.77 71.26 73.46 73.30 74.36 74.14 73.30 73.19 72.40 72.89 73.78 74.69 75.15 75.01 75.22 74.62 73.72 73.53 74.27 72.76 73.19 72.51 72.41 73.82 74.83 74.60 74.17 74.04 73.80 73.70 73.95 73.90 70.85
46.57 43.73 47.55 48.52 50.23 50.99 49.95 49.85 52.32 51.12 51.26 53.72 53.05 54.92 57.11 59.98 67.22 68.56 71.17 73.71 74.52 74.62 73.56 72.44 72.10 71.96 71.68 72.79 73.50 73.21 73.50 72.92 72.18 72.67 73.17 73.05 72.88 72.92 72.84 72.85 72.08 72.78 73.83 72.27 72.84 72.38 71.85 68.93 69.28
45.01 46.61 46.86 47.64 49.28 49.20 48.38 50.25 49.28 51.42 53.02 56.20 56.35 56.47 56.40 57.01 61.09 68.18 69.80 72.35 73.85 73.52 73.32 72.54 72.39 71.87 71.38 72.01 71.23 71.55 70.45 70.45 70.94 72.65 72.50 72.42 74.87 73.02 72.79 71.88 70.24 71.37 71.30 70.92 70.37 69.64 70.49 72.16 72.60
46.29 46.89 48.17 48.63 48.20 47.79 48.34 47.48 48.38 50.21 54.72 56.59 56.55 57.18 56.36 56.72 58.18 65.12 69.59 72.29 73.70 73.44 73.36 72.52 72.04 71.68 72.66 69.81 70.91 70.38 69.73 69.72 70.82 73.19 72.28 73.42 74.48 73.46 72.91 73.09 70.37 70.51 70.70 70.09 71.27 70.93 73.25 72.86 73.54
48.72 48.36 48.08 48.43 47.96 48.22 46.72 46.73 47.57 49.63 54.49 54.92 54.82 55.25 56.59 57.03 57.79 61.17 67.96 69.19 74.10 74.36 73.15 73.18 71.99 73.31 72.72 70.70 71.65 70.80 70.74 70.41 70.90 72.43 71.72 73.71 74.56 74.20 73.58 73.93 72.32 73.25 72.24 72.00 71.42 72.55 73.75 72.17 72.94
49.08 45.60 47.20 47.71 48.00 46.89 48.07 44.41 44.68 49.07 51.50 52.84 53.52 54.74 56.32 57.54 58.22 59.45 61.60 68.90 72.45 73.38 73.14 71.70 72.31 74.68 73.54 72.89 73.91 72.81 72.35 72.08 71.59 72.43 72.84 75.02 74.58 74.87 74.35 73.24 71.19 71.32 71.76 73.46 73.69 73.94 73.78 73.37 73.73
45.47 45.35 40.60 46.02 47.42 47.71 46.75 40.22 46.36 49.17 49.28 49.01 51.02 52.71 54.85 56.98 57.82 59.76 61.49 63.44 71.87 74.56 72.34 73.43 72.67 73.30 74.60 74.52 73.71 73.82 74.62 73.97 74.38 74.08 73.78 74.46 74.41 75.11 74.85 73.18 72.25 72.53 72.73 73.69 72.71 73.16 70.98 71.34 71.57
44.52 39.49 41.63 43.47 47.86 46.74 45.28 41.77 46.74 49.54 49.69 49.34 50.06 51.34 52.90 55.36 58.41 60.45 60.96 62.46 74.85 75.26 72.18 72.34 72.96 73.35 74.66 75.32 75.58 76.31 75.85 74.83 74.75 74.75 74.06 74.88 74.03 74.51 74.38 72.87 72.90 73.43 73.67 74.29 74.88 73.24 72.66 71.18 68.75
39.61 40.69 42.52 42.49 46.48 46.18 44.07 43.36 46.42 48.13 48.58 48.94 50.28 51.38 51.59 53.12 55.67 58.87 61.61 62.10 68.39 75.99 73.30 72.45 73.08 73.80 74.68 74.55 74.81 75.60 74.32 75.62 75.25 74.62 74.64 75.24 74.83 74.69 73.84 72.70 75.87 74.73 73.45 74.01 73.53 72.38 71.08 69.19 67.74
44.36 43.09 41.96 44.64 47.13 45.18 43.90 44.00 45.92 48.26 47.80 48.02 49.48 50.70 51.77 52.51 55.91 58.17 61.32 61.90 68.52 74.92 74.17 73.44 72.71 74.00 74.28 74.19 72.62 73.47 72.68 74.85 74.11 75.66 75.21 75.55 75.33 74.06 73.54 74.92 74.55 74.25 73.20 73.33 72.87 71.94 69.95 66.87 67.42
44.50 42.09 41.75 44.48 46.70 45.70 44.41 44.11 45.99 47.37 47.83 48.11 49.32 50.54 52.43 53.31 54.33 57.21 60.40 63.12 67.89 75.02 74.31 73.75 73.75 73.48 73.75 74.55 74.08 74.40 72.71 74.02 73.84 74.85 75.23 75.32 75.44 74.84 73.95 75.10 72.92 71.77 71.05 69.96 68.94 69.49 67.26 66.57 65.82
43.94 41.88 42.08 41.50 44.88 46.30 44.09 42.57 44.88 47.07 49.11 49.84 49.69 51.54 52.86 53.69 54.61 57.45 60.06 61.29 63.05 74.35 74.25 73.21 72.96 74.03 73.97 74.40 74.42 75.00 73.28 73.88 72.54 73.43 73.53 74.22 74.19 74.01 74.68 73.70 71.96 71.24 69.98 66.68 66.33 66.36 65.62 63.95 64.02
39.97 45.46 44.42 43.00 41.19 36.64 44.63 33.89 42.17 45.62 46.66 48.74 49.86 49.98 50.91 53.05 56.07 57.93 59.95 61.83 63.43 73.98 74.69 74.16 74.35 74.30 74.46 74.58 74.31 73.47 70.93 69.92 72.16 71.77 73.33 73.87 74.32 73.43 71.78 71.23 69.67 68.91 67.78 67.27 66.68 66.29 65.06 63.44 62.22
42.43 46.01 44.34 43.64 41.06 39.73 40.41 35.62 40.66 45.13 44.37 46.85 49.51 49.86 51.17 52.63 54.84 56.41 59.02 60.96 69.60 74.43 74.15 74.38 74.52 74.28 74.85 74.69 73.85 72.97 71.41 73.21 72.35 73.02 72.66 72.02 70.17 69.93 69.65 69.69 68.66 66.74 65.99 65.33 64.29 62.81 64.22 62.96 61.78
46.72 43.73 43.46 42.93 40.28 32.88 38.23 36.60 37.82 41.76 45.05 46.65 49.97 50.75 51.02 51.83 53.96 56.05 58.56 60.80 72.07 74.30 74.14 74.56 73.78 72.96 73.58 73.54 73.63 73.33 71.61 71.06 71.32 70.59 68.29 68.03 67.99 68.29 67.61 67.78 67.67 67.95 66.54 65.99 64.14 63.71 63.50 62.62 61.90
43.86 40.59 33.23 31.26 31.26 30.16 39.70 36.94 40.07 45.36 47.86 48.77 48.91 49.42 51.57 52.21 52.85 54.77 56.46 59.65 69.41 72.07 72.92 72.93 72.44 70.43 71.06 72.97 73.69 72.11 71.42 71.31 70.84 68.72 66.93 66.27 64.93 65.06 65.29 67.03 66.90 65.53 65.25 64.70 63.97 63.15 62.23 61.77 60.77
40.01 38.97 32.52 25.32 27.46 30.19 39.20 33.19 39.11 48.13 50.25 51.05 50.71 50.79 52.80 52.10 52.28 53.88 56.57 59.16 71.30 72.51 72.21 72.22 70.47 70.92 71.34 72.51 71.91 71.33 71.44 70.34 69.49 66.97 67.68 67.75 64.55 65.01 67.46 65.42 64.63 63.76 63.16 62.72 64.10 62.21 60.84 61.68 60.71
38.36 35.98 40.36 32.77 34.43 31.79 34.80 39.08 44.22 46.76 48.01 49.27 49.46 50.63 51.40 52.89 52.70 53.78 56.34 58.78 70.44 71.44 71.72 71.59 70.59 71.33 71.67 72.10 71.62 71.16 71.47 69.51 67.32 68.84 67.56 66.16 65.78 65.49 64.57 63.72 62.73 62.68 62.81 63.25 62.86 61.25 60.38 60.63 60.02
41.53 43.37 34.72 34.17 26.62 25.74 33.02 35.95 37.41 43.03 44.76 46.35 48.58 49.85 51.22 53.95 53.23 53.83 55.83 59.40 70.54 71.48 71.82 71.82 71.77 71.26 71.69 71.65 71.13 71.23 68.89 68.38 68.73 67.05 65.88 65.44 65.72 64.46 63.19 62.36 61.89 61.52 61.87 61.92 61.75 60.41 60.89 60.49 60.17
38.70 37.06 37.89 37.42 34.83 28.81 27.60 33.08 43.45 44.38 45.59 44.21 48.11 50.03 51.28 52.35 52.86 53.34 56.08 67.30 70.91 70.98 71.01 70.74 71.13 71.45 70.81 70.62 70.99 69.06 67.64 67.69 66.46 66.37 65.72 64.79 64.12 63.29 61.99 61.72 61.23 60.73 60.78 61.44 60.54 60.54 60.32 60.02 59.35
42.50 39.36 38.64 32.67 30.39 35.41 33.09 32.73 45.94 46.68 47.02 47.55 48.46 50.61 52.10 52.64 53.24 53.94 63.90 66.17 65.42 69.40 68.46 69.54 69.88 69.70 69.15 69.94 67.43 66.48 65.65 65.37 65.64 64.30 63.72 63.91 62.33 62.09 61.46 60.74 60.06 59.92 60.25 61.11 60.30 59.27 59.96 59.32 58.48

GFSSGP_sfc_wetblb_171.txt.gz
Wetbulb
63.03 59.93 58.94 55.31 42.66 39.95 37.15 42.58 48.93 50.11 51.85 54.65 55.76 55.90 60.05 63.56 61.10 57.43 73.28 75.05 75.59 75.61 77.12 78.11 77.92 77.93 77.67 77.44 77.11 76.67 76.62 76.40 76.31 76.63 76.78 77.23 76.89 77.01 77.24 77.27 77.52 77.68 77.29 76.21 75.49 75.12 74.80 74.43 74.32
62.20 61.57 57.87 51.68 37.81 32.83 37.49 45.11 46.03 50.06 54.17 56.55 56.58 55.12 56.02 64.33 67.80 67.01 71.08 75.19 75.49 75.72 76.24 77.52 77.85 77.52 77.44 77.11 76.75 76.55 76.67 76.38 76.20 76.73 76.86 77.26 77.06 76.81 77.21 77.44 77.45 77.63 76.73 76.03 75.33 74.66 74.43 74.36 74.04
62.72 61.95 52.42 42.99 37.49 35.52 36.01 43.76 46.04 50.09 51.81 51.58 50.68 57.15 60.35 66.51 68.47 68.53 74.13 75.38 75.38 74.36 75.95 77.47 77.82 77.42 77.29 77.04 76.55 76.45 76.47 76.25 76.41 76.81 76.94 76.91 76.93 76.73 76.63 76.91 77.10 77.19 76.37 75.81 75.24 74.71 74.40 74.08 73.81
56.23 51.96 51.72 39.19 37.61 41.03 43.56 44.88 47.55 48.94 50.34 51.66 54.49 55.33 67.61 72.34 71.69 74.34 75.31 75.53 74.30 74.07 76.37 77.64 77.57 77.19 77.21 76.88 76.65 76.32 76.37 76.33 76.43 76.78 76.89 76.77 76.99 76.60 76.33 76.17 76.12 76.31 75.76 74.94 74.70 74.35 74.51 74.33 74.03
53.45 49.56 39.99 37.12 39.83 44.43 47.63 48.57 48.36 48.09 48.34 49.53 50.86 55.24 65.28 71.81 74.65 75.27 74.76 75.22 73.37 75.08 76.49 77.08 77.36 77.18 77.11 77.01 76.65 76.35 76.30 76.15 76.35 76.78 76.66 76.59 76.63 76.72 76.38 76.19 75.96 75.91 75.68 74.53 74.27 74.51 74.51 74.19 73.64
46.69 46.81 37.58 36.79 41.54 46.37 48.36 49.23 48.97 49.35 49.73 50.02 49.66 52.36 62.90 72.34 73.78 75.08 75.43 74.32 74.51 75.08 75.92 76.66 77.47 77.10 76.75 76.65 76.43 76.27 76.04 76.12 76.35 76.58 76.46 76.51 76.55 76.50 76.58 76.46 76.24 76.04 75.74 75.14 74.31 74.21 74.16 73.34 72.84
40.52 40.77 38.09 40.02 42.60 45.05 47.69 49.76 48.50 49.83 49.15 49.37 50.50 48.97 62.72 69.19 72.79 75.59 75.27 74.76 75.15 75.31 75.32 76.00 76.25 76.51 76.75 76.35 75.97 75.91 75.71 75.96 76.06 76.06 76.15 76.10 76.42 76.27 76.12 76.15 76.06 75.86 75.46 74.89 74.31 73.72 73.44 72.72 72.52
44.30 40.31 38.71 41.80 42.03 42.52 47.58 49.34 48.60 48.22 49.90 54.69 53.57 48.05 59.82 68.61 72.85 74.68 75.14 74.47 74.14 74.31 74.66 75.01 75.56 75.83 75.42 75.30 76.17 75.81 75.76 75.82 75.85 75.95 75.95 75.92 76.06 75.91 75.89 75.10 75.52 75.30 74.96 74.31 73.62 73.15 72.90 72.60 72.58
44.06 38.28 36.90 38.71 41.56 43.73 47.99 47.06 50.98 52.09 50.00 51.95 53.45 52.79 69.16 71.48 72.56 72.45 73.42 72.60 72.87 73.26 73.68 74.64 74.70 74.55 74.68 74.52 75.10 75.64 76.17 75.98 75.76 75.76 75.87 74.76 73.87 73.82 74.59 74.41 75.17 74.83 74.51 74.01 73.57 72.97 72.60 72.70 72.92
38.93 34.41 37.75 43.49 44.83 44.11 46.52 46.89 47.63 48.35 48.50 49.53 51.75 54.67 69.26 69.49 70.48 70.14 71.74 71.13 71.28 70.74 71.93 73.64 73.98 74.02 73.97 74.59 73.81 73.75 74.21 74.38 73.97 74.14 73.75 71.91 71.67 70.99 71.97 73.76 74.76 74.46 74.19 73.86 73.34 73.17 73.02 73.05 69.77
41.04 37.70 41.72 43.65 45.31 46.63 45.90 46.07 48.02 46.76 45.31 48.06 49.51 52.75 57.83 65.62 65.83 69.01 71.18 72.14 71.33 70.86 71.05 72.09 72.96 73.37 73.51 73.54 73.29 73.24 73.23 72.91 72.54 72.74 71.79 70.09 71.11 70.82 71.11 71.30 71.87 71.03 73.39 71.22 72.02 71.47 71.27 69.91 68.83
38.66 43.34 43.44 43.20 44.54 43.35 42.82 45.28 45.08 45.98 46.88 50.28 51.61 54.79 54.47 52.97 63.43 64.63 68.03 71.89 71.41 70.32 70.43 70.73 71.55 71.54 72.32 73.04 72.62 72.47 71.58 70.83 69.94 71.19 70.60 69.12 68.61 69.67 70.17 69.59 69.45 69.05 69.30 69.40 68.58 68.24 68.58 68.01 67.00
41.89 43.64 45.34 45.11 43.90 43.70 45.01 43.40 43.39 44.40 48.05 49.98 50.90 54.08 53.26 53.17 53.21 59.77 65.94 68.91 71.66 69.92 70.07 69.69 70.10 68.51 70.96 70.70 69.85 70.68 69.38 69.22 68.28 70.20 69.33 69.52 70.05 69.05 70.01 69.09 67.99 68.23 68.39 67.39 67.93 66.83 67.24 67.91 68.92
44.28 44.82 45.00 45.01 44.29 44.24 43.19 43.38 44.09 46.11 48.39 48.53 49.19 51.02 52.79 52.92 53.23 54.26 60.13 65.38 71.01 70.37 69.11 69.01 68.77 69.18 69.34 68.40 67.67 68.15 67.70 67.02 68.12 70.13 68.85 69.60 70.72 69.30 68.37 68.89 66.86 67.08 67.78 67.05 67.84 67.12 69.27 68.51 71.19
45.77 41.41 43.80 44.08 44.12 43.14 44.78 41.35 42.43 46.80 48.02 46.52 47.52 48.90 51.41 52.24 52.82 53.13 54.94 57.81 71.22 70.45 70.43 68.46 68.22 69.75 67.73 67.57 67.37 66.90 67.14 68.45 68.64 69.72 68.55 69.60 71.46 69.99 69.47 68.32 66.89 67.05 67.58 68.51 69.60 69.87 69.87 71.08 69.89
41.67 40.20 34.86 41.99 44.76 45.38 43.11 37.52 44.37 46.79 45.88 45.60 46.81 48.08 49.16 50.33 51.18 52.49 55.45 55.51 69.64 70.75 70.51 70.50 72.44 69.56 68.01 68.69 68.34 68.48 67.38 68.81 68.59 69.80 68.45 70.16 71.31 70.39 69.03 68.09 67.12 67.34 67.70 68.04 67.79 69.05 68.95 68.82 67.11
38.50 33.95 36.70 40.34 45.86 44.53 42.46 39.49 44.57 46.29 45.13 45.26 45.78 46.55 47.93 48.55 49.95 51.58 55.15 55.53 71.00 71.03 69.58 69.12 70.10 71.44 70.62 69.38 70.03 70.21 69.46 70.38 69.56 70.70 69.65 70.86 71.41 70.93 68.99 67.74 68.06 66.32 68.39 71.19 70.37 69.26 69.13 66.37 65.98
34.76 36.02 38.98 39.19 44.26 45.51 41.55 40.94 43.70 44.70 45.18 44.94 45.38 47.05 47.75 48.26 49.18 51.01 52.52 56.25 71.02 70.34 69.49 68.94 69.04 71.08 71.14 71.59 71.74 72.20 71.95 71.30 71.60 71.03 70.39 71.24 70.29 71.33 69.44 68.04 68.65 70.55 70.62 70.13 69.14 66.30 65.92 65.00 64.02
41.97 39.78 38.33 41.71 45.18 43.09 41.37 41.42 43.66 44.52 43.88 43.86 43.70 45.00 46.84 47.89 50.29 51.34 51.99 53.77 70.34 69.76 68.46 67.46 67.94 67.48 70.31 70.81 71.20 70.86 70.60 71.27 71.93 71.77 71.61 72.06 71.09 70.55 67.43 71.82 70.38 70.75 70.04 68.56 68.91 66.56 64.33 62.86 62.73
41.86 39.34 38.69 42.53 45.03 43.65 41.93 41.17 44.17 45.58 44.08 45.01 44.97 44.99 45.72 47.55 48.68 50.72 51.67 52.22 69.46 67.00 67.05 67.03 67.24 67.04 69.60 71.09 71.84 71.49 70.83 72.05 71.84 72.39 72.32 72.30 71.02 69.28 71.86 70.19 68.82 68.62 66.47 64.72 63.97 64.21 62.66 63.09 60.78
40.51 39.70 39.37 39.41 43.51 44.22 41.80 39.53 41.59 45.15 46.53 46.90 46.40 46.99 48.05 47.64 48.41 49.84 51.06 51.52 69.02 65.91 64.82 64.72 66.86 69.37 70.96 71.98 71.97 71.58 71.49 70.67 70.91 71.24 71.07 70.70 70.52 71.89 70.98 69.85 68.15 66.00 64.76 63.84 63.98 63.52 63.37 61.73 62.28
37.04 43.73 42.81 41.42 39.52 32.82 41.65 30.75 38.74 41.55 43.53 45.76 46.52 46.68 47.75 47.64 48.59 49.62 50.52 51.04 68.65 69.15 66.97 66.54 65.65 65.32 70.78 71.98 71.42 70.75 69.91 68.91 70.51 70.48 69.98 70.24 70.71 70.06 68.86 67.25 66.27 65.57 64.65 64.36 64.73 63.58 61.56 61.55 59.59
39.32 43.75 41.48 40.76 37.30 35.72 36.97 33.43 37.36 41.76 40.74 43.41 46.09 47.26 47.18 48.68 48.64 48.48 49.94 52.66 59.66 70.81 70.64 69.90 65.72 65.05 69.40 68.74 71.13 70.63 69.67 69.56 70.18 70.44 68.31 68.06 68.13 68.46 67.69 66.80 65.62 64.32 63.55 62.22 61.11 60.40 59.71 57.84 55.71
45.85 42.16 40.51 39.06 36.82 30.26 34.78 35.06 34.35 37.83 40.90 43.51 46.62 47.96 49.24 49.42 49.54 48.86 50.31 52.78 59.86 71.72 70.94 71.11 70.36 69.41 71.07 69.99 70.72 69.70 69.57 69.63 69.48 68.02 67.23 67.27 66.76 66.42 66.66 66.18 65.58 62.85 61.64 60.82 59.36 59.43 58.58 56.97 56.17
42.10 38.14 30.93 29.09 28.46 27.31 37.23 34.40 35.95 41.10 44.32 45.28 45.78 47.03 48.53 49.18 49.55 49.09 49.06 50.36 60.39 70.03 70.63 70.68 70.80 69.76 70.87 70.60 70.17 69.94 70.40 69.72 67.79 67.05 66.22 65.46 65.04 64.89 65.33 64.77 62.57 61.62 60.35 60.04 59.49 58.24 57.49 56.85 55.32
37.13 36.80 31.29 24.19 26.15 29.49 36.65 30.47 33.91 44.13 46.98 47.37 47.61 48.80 49.26 48.49 49.60 49.17 48.90 49.56 53.91 69.27 70.10 70.75 70.83 70.24 70.18 69.98 69.84 69.87 70.12 68.18 66.98 66.09 65.00 64.49 64.27 64.63 64.37 62.67 60.72 59.42 59.24 59.43 58.70 56.77 56.39 56.24 55.50
34.91 32.06 39.73 32.51 32.95 28.59 30.28 35.15 40.01 43.61 44.75 46.26 46.58 48.74 48.34 48.59 47.73 49.28 49.25 49.83 51.94 68.14 69.24 70.12 69.96 69.34 68.63 69.05 69.41 69.05 68.06 66.63 66.24 66.27 64.43 64.72 65.09 62.87 60.95 60.01 58.82 58.87 59.40 58.32 57.55 55.78 55.52 54.93 55.56
38.53 41.08 31.88 33.78 21.07 20.57 28.12 30.78 31.55 38.74 40.90 44.94 45.51 44.50 46.67 48.59 49.18 49.58 49.90 50.24 55.82 67.54 69.43 69.47 69.03 67.85 68.91 69.00 68.91 68.67 66.60 66.45 66.09 64.58 64.01 63.96 62.72 61.29 59.76 58.75 58.25 58.01 57.51 56.55 56.03 55.44 55.64 54.79 54.55
35.94 33.43 36.56 36.76 35.04 26.72 22.91 27.02 38.71 39.51 42.86 43.06 43.03 45.67 45.18 47.52 50.07 50.07 50.07 50.86 60.20 68.10 68.86 68.12 67.31 65.91 68.15 68.21 68.48 66.76 66.76 64.76 64.20 62.98 63.13 62.14 60.67 59.41 58.57 58.58 57.92 57.09 56.44 55.90 55.26 55.07 56.21 54.73 54.24
38.78 36.68 36.84 32.07 28.51 31.38 28.49 28.84 42.07 41.21 44.40 43.23 43.43 46.53 45.89 46.30 50.53 47.21 49.40 50.79 63.65 67.76 67.86 67.11 65.87 65.43 68.36 68.61 66.98 66.44 64.69 64.57 63.63 62.87 61.66 60.56 59.29 58.95 58.52 57.88 57.35 57.35 57.09 55.89 55.20 55.39 56.02 54.57 54.65

GFSSGP_sfc_wetblb_174.txt.gz
Wetbulb
62.74 60.06 57.10 53.85 41.85 37.56 34.27 39.53 45.35 46.51 47.43 51.07 52.55 52.59 61.80 62.70 60.26 57.23 72.20 74.19 75.45 76.39 77.25 77.61 77.92 78.03 77.75 77.16 76.79 76.36 76.09 76.16 76.61 76.91 76.89 76.69 76.77 76.75 76.97 77.10 77.30 76.95 76.23 75.89 75.38 74.77 74.54 73.98 73.72
62.07 60.36 55.82 49.01 36.96 31.07 34.57 40.84 43.49 46.58 49.02 50.17 49.89 50.86 60.42 62.13 66.87 69.03 71.58 74.81 75.23 76.42 76.84 76.81 77.72 77.65 77.44 77.01 76.43 76.21 76.06 76.04 76.66 76.86 76.76 76.71 76.61 76.69 77.24 77.32 77.18 76.70 75.87 75.30 74.81 74.26 74.11 73.89 73.37
59.78 60.59 51.49 44.48 34.17 32.98 34.01 39.87 44.22 47.12 47.54 47.68 47.12 51.79 63.61 65.22 66.80 69.75 73.71 74.66 75.21 75.84 76.46 76.71 77.44 77.31 77.21 76.91 76.48 76.16 75.86 75.91 76.54 76.96 76.79 76.49 76.61 76.78 76.96 77.07 77.08 76.75 75.87 75.39 74.66 74.18 73.87 73.34 73.09
53.66 50.28 49.27 39.41 35.50 37.95 39.07 42.82 43.88 46.81 49.15 49.12 48.12 48.74 67.60 70.32 69.16 72.95 74.65 74.80 74.21 75.22 76.01 77.30 77.16 77.06 76.99 76.79 76.51 76.13 75.99 76.09 76.54 76.77 76.74 76.44 76.56 76.53 76.73 76.76 76.82 76.65 75.78 75.25 74.44 74.11 73.94 73.36 72.88
50.81 45.93 38.55 34.37 37.24 40.04 44.62 45.87 46.85 45.69 47.16 48.21 48.20 49.46 65.65 70.71 74.05 74.11 73.93 73.87 72.94 74.43 76.22 76.39 77.14 77.09 76.81 76.84 76.54 76.08 75.91 75.86 76.29 76.37 76.59 76.46 76.16 76.06 76.11 76.09 76.12 75.97 75.11 74.29 74.00 74.04 73.92 73.77 73.13
43.79 43.69 35.45 33.82 38.76 43.56 45.19 47.20 46.90 47.36 48.13 48.32 47.90 55.91 64.74 72.74 72.78 73.54 73.62 72.47 74.08 74.49 75.73 76.16 77.19 76.89 76.48 76.41 76.26 75.83 75.58 75.73 76.11 76.09 76.21 76.16 76.13 75.98 75.84 75.72 75.70 75.57 75.22 74.57 74.04 73.95 73.99 73.15 72.61
39.33 36.79 33.67 35.44 38.75 41.38 45.47 46.87 45.39 44.86 45.42 47.19 50.13 46.51 65.43 71.24 73.05 73.71 72.85 73.82 74.18 74.82 75.15 75.70 75.92 76.42 76.66 76.28 75.85 75.70 75.53 75.70 75.58 75.68 75.73 75.93 76.14 75.95 75.95 75.81 75.83 75.71 75.16 74.81 74.44 73.97 73.55 72.78 72.46
41.99 37.61 32.74 34.29 36.97 37.78 45.26 46.66 46.25 45.45 46.98 51.10 51.65 46.49 59.74 71.29 73.74 73.37 73.04 73.59 73.91 74.14 74.93 75.14 75.44 74.76 74.79 75.13 75.90 75.62 75.63 75.60 75.37 75.70 75.82 75.79 75.99 75.94 75.89 74.89 75.54 75.65 75.08 74.68 73.99 73.57 73.32 72.83 72.46
41.17 32.69 29.23 33.16 37.07 39.42 43.82 42.45 47.32 49.35 47.50 48.98 49.99 50.24 61.38 73.67 73.95 72.12 71.84 72.19 72.56 73.26 73.90 74.36 74.39 73.92 73.89 74.00 74.91 75.47 75.86 75.87 75.64 75.57 75.68 74.81 73.61 73.66 74.45 74.51 75.24 75.05 74.71 74.29 73.67 73.23 72.83 72.73 72.58
37.39 30.48 32.84 40.59 41.16 40.41 42.76 42.41 45.06 45.77 45.75 46.39 48.35 51.49 56.23 60.48 69.26 70.73 70.39 70.17 71.07 71.55 72.77 73.53 73.82 73.43 73.33 73.58 73.70 73.68 73.93 73.95 73.84 73.95 74.04 72.78 71.99 71.60 73.18 73.59 74.99 74.78 74.38 73.91 73.42 73.05 72.68 72.34 68.37
37.12 34.32 38.97 41.01 41.82 42.18 42.22 42.13 43.91 43.55 41.58 44.84 45.95 48.27 52.24 58.75 59.77 66.75 70.63 70.65 70.81 71.72 72.37 73.33 73.41 73.35 72.70 72.93 72.79 72.94 73.31 73.21 73.46 73.40 71.74 70.00 70.74 70.71 70.33 70.16 71.79 70.31 72.78 69.65 71.05 70.05 69.65 68.65 68.27
37.25 42.04 41.70 41.63 43.09 40.53 40.24 42.86 43.08 43.11 42.61 47.02 47.73 49.35 50.86 52.89 54.93 59.25 60.90 70.62 70.59 70.82 71.63 72.96 73.19 72.80 72.55 72.30 72.03 72.22 71.65 71.90 71.89 72.22 69.95 68.69 68.17 68.42 68.89 69.16 68.96 68.17 68.87 67.95 67.88 68.33 68.40 68.48 68.24
37.76 41.24 44.03 44.39 42.78 42.26 43.92 42.59 42.04 43.04 46.23 47.86 48.31 49.36 48.81 51.00 51.22 54.80 59.54 67.37 70.44 69.72 70.88 72.00 72.69 72.42 72.31 71.77 71.41 71.57 70.69 70.21 70.60 70.95 70.12 69.03 68.04 68.34 68.53 67.79 67.59 67.50 67.09 67.54 66.91 66.84 66.61 66.60 66.56
42.26 43.54 43.67 43.19 42.41 42.23 41.69 42.65 42.39 45.58 47.81 46.62 47.27 46.85 46.89 49.17 50.56 50.12 52.51 63.58 69.45 69.41 69.53 70.73 71.22 71.63 72.08 70.67 70.02 69.57 68.40 67.94 68.18 70.03 69.18 69.16 68.95 68.19 68.53 67.81 67.04 66.18 66.61 66.66 66.23 66.78 65.92 66.62 68.92
43.81 39.55 42.20 42.43 42.34 41.53 42.94 40.82 41.94 46.39 46.14 45.26 45.79 46.98 46.81 47.76 49.53 48.98 50.48 55.38 69.19 68.09 68.06 68.41 67.96 70.43 70.28 68.22 68.34 66.41 66.22 66.30 66.59 68.86 67.94 69.09 69.71 68.26 68.10 68.48 66.67 66.07 66.42 66.57 65.60 66.86 67.94 69.51 67.78
39.48 37.17 31.54 39.67 42.88 44.20 41.66 36.46 43.71 45.75 44.65 45.03 45.53 46.07 47.16 46.90 47.96 48.09 50.32 67.06 68.04 67.17 67.29 67.80 69.97 67.68 67.14 67.29 66.80 66.32 65.10 66.11 66.30 68.17 68.30 69.05 70.44 69.75 68.75 67.44 66.12 66.16 66.54 66.22 67.91 69.55 68.91 67.53 66.60
35.12 30.42 33.95 38.23 43.25 43.05 41.04 38.51 43.80 45.64 44.27 44.33 44.86 44.07 45.87 46.38 47.12 48.48 49.64 60.37 68.42 67.41 67.14 68.50 68.38 67.04 66.79 67.02 67.21 66.58 65.31 66.76 66.44 68.05 67.70 68.63 70.46 70.52 68.22 67.51 66.93 66.25 69.24 68.98 68.47 66.10 65.80 64.80 64.69
31.85 32.81 35.23 36.17 42.11 43.15 40.84 40.78 43.87 44.13 43.62 43.74 44.78 44.22 45.00 46.96 46.82 48.26 49.37 65.92 69.06 67.72 67.39 68.41 68.76 69.00 68.76 70.31 67.48 67.27 66.61 67.92 67.50 69.09 68.17 69.18 70.11 69.91 67.76 67.08 67.58 70.13 68.98 66.62 65.47 63.96 63.32 62.82 64.52
39.94 37.84 37.01 40.72 44.42 41.16 40.96 41.30 43.47 44.41 42.79 41.29 41.34 42.88 43.15 45.67 48.37 48.42 49.80 66.69 69.00 68.09 67.29 67.54 68.58 69.12 68.06 69.40 68.50 68.60 66.71 68.20 68.22 69.47 69.35 69.31 70.02 69.82 70.19 69.91 69.46 68.87 67.86 66.53 64.93 63.33 60.82 60.40 61.08
40.07 37.38 37.48 41.44 44.01 42.18 41.02 40.64 44.04 42.90 43.29 43.12 43.79 44.47 43.70 43.94 47.04 48.54 48.58 65.67 67.94 67.65 67.55 67.61 68.79 69.23 68.78 69.09 69.16 69.69 69.15 69.49 69.67 70.04 70.05 70.73 70.26 70.01 69.96 68.87 67.18 65.58 64.80 64.09 63.86 63.01 62.14 60.35 59.52
38.62 37.15 37.37 37.32 41.11 42.19 40.63 38.80 41.38 44.90 44.34 45.00 45.74 44.90 45.22 46.26 46.33 47.82 48.16 54.16 66.80 67.07 66.80 67.17 67.58 67.93 67.49 66.98 69.68 70.58 69.89 70.20 69.94 69.61 70.04 70.38 70.73 70.75 69.42 67.90 65.65 64.17 63.65 62.84 62.33 62.04 60.79 59.33 58.54
34.77 41.38 40.83 39.25 36.83 32.20 42.20 29.60 38.19 41.15 43.08 44.45 45.71 44.85 44.84 45.75 47.28 48.16 48.11 47.57 65.37 66.76 66.79 67.25 66.84 66.87 64.30 64.58 68.66 69.42 68.71 68.08 69.76 70.02 69.43 70.56 70.71 69.35 67.79 66.00 64.75 63.53 63.79 62.92 61.98 61.19 60.40 59.92 56.30
38.82 43.63 40.49 38.82 35.00 33.37 35.84 33.61 36.39 41.60 40.30 42.71 45.11 46.23 45.90 46.15 46.51 46.27 47.28 47.77 63.38 66.55 65.93 66.37 66.34 65.65 65.69 67.16 69.51 69.62 68.60 69.42 70.23 69.16 68.53 68.67 67.77 67.03 66.33 65.19 64.48 63.14 62.29 60.89 59.74 58.54 56.74 55.30 53.82
43.67 39.17 38.26 37.48 33.59 27.97 33.35 33.15 33.55 36.98 39.57 42.71 44.83 45.08 46.81 46.99 48.22 49.21 48.74 48.35 52.45 64.80 65.33 65.98 65.86 65.57 67.37 69.70 70.21 69.87 68.61 69.06 68.22 67.38 67.29 67.11 66.31 65.70 64.88 64.52 62.49 60.92 60.19 58.94 58.18 56.76 55.71 54.97 53.74
39.66 33.58 27.25 26.92 25.65 26.61 35.77 33.15 34.71 40.42 43.53 44.16 44.10 45.69 47.24 47.92 47.79 49.31 46.92 47.10 50.40 64.75 64.60 64.69 65.35 65.20 66.62 69.28 69.84 69.76 68.21 69.31 67.79 67.31 66.76 65.36 64.68 64.63 63.89 62.74 61.40 59.33 59.08 58.18 57.06 56.23 55.15 53.65 53.08
33.96 33.00 24.36 21.28 19.23 25.42 34.72 29.74 33.67 42.33 45.90 46.58 47.45 46.43 46.24 46.57 47.04 48.44 49.68 48.88 49.61 65.41 66.05 66.12 63.94 63.17 66.01 67.19 66.56 67.88 68.69 68.69 68.06 67.45 66.35 64.99 63.99 64.03 62.65 60.97 59.75 59.01 58.42 57.72 56.33 55.37 54.71 54.47 53.89
31.91 28.01 35.96 31.41 31.80 28.01 28.87 32.84 38.66 42.13 42.31 44.12 44.50 45.00 44.79 44.98 47.82 47.68 49.07 46.35 50.28 62.75 66.40 66.88 66.04 63.50 65.47 65.92 63.44 68.05 69.23 68.19 66.66 65.74 65.04 64.57 64.14 61.97 60.84 59.30 58.34 58.41 57.23 56.02 54.86 54.29 54.15 53.98 52.82
36.32 38.96 27.66 32.94 24.94 23.07 25.94 28.54 29.70 36.53 39.05 41.77 42.37 42.50 44.05 45.29 46.79 45.45 46.27 46.47 49.92 63.34 66.20 66.62 68.33 65.76 65.22 69.18 66.04 66.20 67.65 67.18 65.22 64.78 64.35 63.28 61.94 60.58 58.64 58.25 58.15 57.02 55.97 55.19 54.42 54.84 53.99 52.81 51.77
32.27 30.22 35.10 34.78 32.89 24.07 23.55 26.33 36.07 37.50 39.36 39.97 41.76 44.08 43.93 44.33 46.99 46.57 45.86 47.51 52.06 62.91 65.99 66.75 68.26 68.20 68.18 68.57 67.29 66.00 66.31 65.86 65.08 64.53 63.25 61.58 60.24 59.14 58.14 57.57 56.38 55.66 55.08 54.66 54.40 54.18 54.03 53.11 52.28
36.63 35.56 35.79 30.32 29.14 32.28 28.17 29.09 41.00 38.83 40.45 41.23 42.15 44.97 43.59 46.26 45.89 48.42 47.17 47.72 52.73 60.56 65.61 66.40 66.81 66.99 66.94 67.09 66.11 65.67 65.46 65.31 64.17 62.49 61.18 60.28 58.65 58.17 57.74 56.66 56.41 56.24 55.25 54.23 54.68 54.74 54.23 53.34 52.00